Regional Weather Roundup
Issued by NWS

Home | Current Version | Previous Version | Text Only | Print | Product List | Glossary On
Versions: 1 2 3 4 5 6 7 8 9 10 11 12 13 14 15 16 17 18 19 20 21 22 23 24 25 26 27 28 29 30 31 32 33 34 35 36 37 38 39 40 41 42 43 44 45 46 47 48 49 50
000
ASUS43 KDMX 191407
RWRIA

WEATHER ROUNDUP FOR IOWA
NATIONAL WEATHER SERVICE DES MOINES IA
900 AM CDT FRI SEP 19 2014

NOTE: "FAIR" INDICATES FEW OR NO CLOUDS BELOW 12,000 FEET WITH NO
SIGNIFICANT WEATHER AND/OR OBSTRUCTIONS TO VISIBILITY.

* - THESE STATIONS ARE NOT NWS STATIONS...THUS NOT UNDER NWS
QUALITY CONTROL.  THEY ALSO DO NOT REPORT WEATHER SUCH
AS PRECIPITATION OR FOG.

IAZ001>003-012>014-020>022-031>034-043>046-191500-
   NORTHWEST IOWA

CITY           SKY/WX    TMP DP  RH WIND       PRES   REMARKS
CARROLL *      CLOUDY    63  61  94 S14G22    29.93F
CHEROKEE *     PTSUNNY   64  63  94 S13       29.87F FOG
DENISON *      MOSUNNY   63  63 100 S15       29.89F
LE MARS *      CLOUDY    64  63  94 S18       29.85F
ORANGE CITY *  CLOUDY    64  61  88 S13G20    29.85F FOG
SHELDON *      CLOUDY    63  61  94 S8G15     29.85F FOG
SIOUX CITY     CLOUDY    66  62  87 S12G21    29.86F
SPENCER        CLOUDY    62  59  90 SE12      29.88F FOG
STORM LAKE *   CLOUDY    63  63 100 S15G23    29.89F FOG
$$

IAZ055>058-069>071-079>083-090>094-191500-
   SOUTHWEST IOWA

CITY           SKY/WX    TMP DP  RH WIND       PRES   REMARKS
ATLANTIC *     CLOUDY    63  61  94 S14       29.95F
AUDUBON *      PTSUNNY   63  55  77 S12G18    29.95F HAZE
CLARINDA *     CLOUDY    61  61 100 S13       30.00F FOG
COUNCIL BLFS * CLOUDY    63  63 100 S15       29.93S FOG
CRESTON *      CLOUDY    61  61 100 S14G20    30.00F FOG
HARLAN  *      CLOUDY    63  63 100 S14G22    29.97F FOG
LAMONI         FOG       59  58  96 S12G17    30.03F VSB 1/2
SHENANDOAH *   CLOUDY    64  63  94 S13       29.98S FOG
$$

IAZ047>049-059>061-072>074-084-191500-
   CENTRAL IOWA

CITY           SKY/WX    TMP DP  RH WIND       PRES   REMARKS
AMES           MOSUNNY   58  56  93 SE10      29.98F
ANKENY *       SUNNY     61  57  88 S9        30.00F
CHARITON *     SUNNY     61  57  88 S12       30.03F
DES MOINES     PTSUNNY   62  56  80 S13       30.00F
GRINNELL*      SUNNY     59  52  77 S13G18    30.04F
KNOXVILLE *    SUNNY     59  55  88 S10       30.02F
MARSHALLTOWN   SUNNY     57  53  86 S12       30.01F
PELLA *        MOSUNNY   61  54  77 S10       30.04F
PERRY *        CLOUDY    61  59  94 S13       29.97F FOG
$$

IAZ004>006-015-016-023>025-035-036-191500-
   NORTH CENTRAL IOWA

CITY           SKY/WX    TMP DP  RH WIND       PRES   REMARKS
ALGONA *       PTSUNNY   59  57  94 S16       29.93R
CLARION *        N/A     63  57  82 S18       29.95F
ESTHERVILLE    CLOUDY    59  57  93 S17G24    29.89F FOG
FORT DODGE *   PTSUNNY   63  57  82 S16G24    29.94F
MASON CITY     MOSUNNY   57  52  83 S16       29.97F
FOREST CITY *  CLOUDY    61  55  82 S17       29.94F
IOWA FALLS *     N/A     57  54  88 SE13      30.00F
$$

IAZ007>011-017>019-026>030-037>042-050>054-066-191500-
   NORTHEAST IOWA

CITY           SKY/WX    TMP DP  RH WIND       PRES   REMARKS
CEDAR RAPIDS   SUNNY     57  53  86 S9        30.07F
CHARLES CITY * SUNNY     57  50  77 S10G17    30.00F
CLINTON *      SUNNY     55  52  88 S8        30.14S
DECORAH *      SUNNY     55  52  88 S9G17     30.02F
DUBUQUE        MOSUNNY   54  52  93 S9        30.10F FOG
MONTICELLO *   SUNNY     57  54  88 SE6       30.09S FOG
OELWEIN *      SUNNY     57  52  82 S10       30.05F
WATERLOO       SUNNY     58  50  75 S13G23    30.01F
$$

IAZ064-065-067-068-078-191500-
   EAST CENTRAL IOWA

CITY           SKY/WX    TMP DP  RH WIND       PRES   REMARKS
DAVENPORT      SUNNY     58  51  78 SE7       30.11S
IOWA CITY      SUNNY     56  52  86 SE5       30.10R
MT. PLEASANT * SUNNY     61  52  72 SE6       30.10R
MUSCATINE *    SUNNY     57  52  82 S6        30.11R
QUAD CITIES    SUNNY     59  53  80 S5        30.11S
$$

IAZ062-063-075>077-085>089-095>099-191500-
   SOUTHEAST IOWA

CITY           SKY/WX    TMP DP  RH WIND       PRES   REMARKS
BURLINGTON     SUNNY     60  53  77 S7        30.10S
FAIRFIELD *    SUNNY     59  54  82 S9        30.08S
FORT MADISON * SUNNY     63  52  67 S8        30.10R
KEOKUK *       SUNNY     61  54  77 SE7       30.09R
OSKALOOSA *    PTSUNNY   57  55  94 S8        30.07F
CENTERVILLE *  SUNNY     59  57  94 SE6       30.07F
OTTUMWA        PTSUNNY   59  53  80 S10       30.06R
WASHINGTON *   SUNNY     59  55  88 S9        30.09R
$$

ABBREVIATIONS USED IN REMARKS
   TC - TEMPERATURES IN CELSIUS
  WCI - WIND CHILL INDEX
   HX - HEAT INDEX
  VSB - VISIBILITY
$$



USA.gov is the U.S. government's official web portal to all federal, state and local government web resources and services.